Date_and_time,latitude,longitude,wind_speed,RelWindDirFrom,WindDirFrom,air_pressure,air_temperature,relative_humidity,Temp,platform_speed_wrt_ground,air_pressure_at_mean_sea_level,platform_orientation
2018-11-07 00:00,50.6304533333333,-96.9807633333333,15.3,21.2,322,985.06,-2.2,98,2.89,0.0,1013.01,270.0
2018-11-07 00:10,50.6304516666667,-96.9807633333333,16.4,24.1,324,985.15,-2.2,96,2.89,0.0,1013.10,270.0
2018-11-07 00:20,50.6304516666667,-96.9807633333333,17.3,29.6,326,985.29,-2.3,93,2.89,0.0,1013.26,270.0
2018-11-07 00:30,50.6304516666667,-96.980765,18.4,28.0,327,985.43,-2.3,92,2.90,0.0,1013.41,270.0
2018-11-07 00:40,50.6304516666667,-96.980765,18.9,28.2,327,985.54,-2.4,91,2.92,0.0,1013.54,270.0
2018-11-07 00:50,50.6304566666667,-96.9807816666667,18.1,27.2,327,985.76,-2.5,92,2.91,0.0,1013.78,270.0
2018-11-07 01:00,50.6304466666667,-96.9807733333333,15.5,22.2,328,986.12,-2.5,93,2.89,0.0,1014.16,270.0
2018-11-07 01:10,50.6304483333333,-96.9807716666667,17.6,24.7,331,986.22,-2.6,92,2.89,0.0,1014.27,270.0
2018-11-07 01:20,50.63045,-96.980775,18.6,25.3,334,986.42,-2.6,92,2.88,0.0,1014.48,270.0
2018-11-07 01:30,50.63045,-96.980775,17.7,27.6,333,986.60,-2.6,91,2.86,0.0,1014.66,270.0
2018-11-07 01:40,50.63045,-96.9807733333333,15.7,22.5,333,986.81,-2.7,92,2.85,0.0,1014.90,270.0
2018-11-07 01:50,50.6304516666667,-96.9807733333333,15.8,21.4,335,986.99,-2.7,93,2.84,0.0,1015.08,270.0
2018-11-07 02:00,50.6304466666667,-96.9807783333333,16.7,25.7,334,987.04,-2.7,92,2.84,0.0,1015.14,248.5
2018-11-07 02:10,50.63045,-96.9807633333333,14.9,22.4,333,987.23,-2.8,92,2.84,0.0,1015.34,248.5
2018-11-07 02:20,50.6304483333333,-96.9807666666667,16.8,23.6,327,987.15,-2.9,91,2.85,0.0,1015.26,248.5
2018-11-07 02:30,50.6304483333333,-96.9807666666667,14.6,21.1,327,987.39,-3.0,93,2.85,0.0,1015.52,248.5
2018-11-07 02:40,50.6304466666667,-96.9807633333333,17.2,25.8,330,987.44,-3.0,92,2.82,0.0,1015.57,248.5
2018-11-07 02:50,50.6304366666667,-96.9807566666667,16.6,25.3,329,987.54,-3.0,93,2.81,0.0,1015.69,248.5
2018-11-07 03:00,50.63044,-96.9807533333333,14.0,21.5,326,987.80,-3.2,93,2.81,0.0,1015.96,131.7
2018-11-07 03:10,50.6304466666667,-96.9807566666667,14.2,21.6,327,987.94,-3.2,93,2.81,0.0,1016.10,131.7
2018-11-07 03:20,50.6304533333333,-96.980765,17.8,25.4,330,987.86,-3.2,92,2.79,0.0,1016.02,131.7
2018-11-07 03:30,50.630445,-96.9807616666667,18.5,26.6,334,988.05,-3.2,91,2.78,0.0,1016.23,131.7
2018-11-07 03:40,50.6304466666667,-96.9807633333333,15.2,21.5,329,988.30,-3.3,91,2.77,0.0,1016.50,131.7
2018-11-07 03:50,50.6304483333333,-96.9807616666667,15.1,21.9,330,988.43,-3.3,91,2.76,0.0,1016.62,131.7
2018-11-07 04:00,50.63045,-96.9807616666667,16.5,28.0,330,988.50,-3.4,89,2.75,0.0,1016.70,54.7
2018-11-07 04:10,50.63045,-96.9807616666667,18.1,29.0,332,988.58,-3.6,86,2.72,0.0,1016.81,54.7
2018-11-07 04:20,50.63045,-96.9807633333333,15.7,24.6,324,988.78,-3.8,85,2.70,0.0,1017.02,54.7
2018-11-07 04:30,50.6304483333333,-96.9807616666667,16.0,23.0,327,988.93,-3.8,85,2.70,0.0,1017.18,54.7
2018-11-07 04:40,50.6304483333333,-96.98076,16.9,25.6,332,989.13,-3.8,85,2.69,0.0,1017.38,54.7
2018-11-07 04:50,50.6304483333333,-96.980785,17.0,23.7,331,989.20,-3.9,86,2.68,0.0,1017.47,54.7
2018-11-07 05:00,50.63045,-96.9807633333333,17.8,26.4,330,989.21,-4.0,85,2.66,0.0,1017.48,66.4
2018-11-07 05:10,50.63045,-96.9807666666667,14.9,22.4,334,989.59,-4.0,86,2.65,0.0,1017.88,66.4
2018-11-07 05:20,50.63045,-96.980765,13.8,23.0,338,989.86,-4.0,89,2.65,0.0,1018.16,66.4
2018-11-07 05:30,50.630445,-96.980765,17.0,25.5,338,989.82,-4.1,88,2.65,0.0,1018.13,66.4
2018-11-07 05:40,50.6304483333333,-96.9807633333333,18.8,25.3,338,989.83,-4.4,87,2.63,0.0,1018.16,66.4
2018-11-07 05:50,50.63045,-96.980765,17.8,24.1,337,989.97,-4.6,87,2.61,0.0,1018.32,66.4
2018-11-07 06:00,50.6304483333333,-96.9807566666667,15.7,21.8,333,990.15,-4.7,87,2.59,0.0,1018.52,311.7
2018-11-07 06:10,50.6304483333333,-96.9807616666667,15.1,23.6,329,990.30,-4.7,87,2.58,0.0,1018.68,311.7
2018-11-07 06:20,50.63045,-96.980765,13.6,19.6,333,990.53,-4.6,88,2.58,0.0,1018.91,311.7
2018-11-07 06:30,50.6304516666667,-96.9807666666667,13.9,19.2,337,990.65,-4.6,88,2.58,0.0,1019.04,311.7
2018-11-07 06:40,50.6304533333333,-96.9807666666667,14.4,22.4,336,990.73,-4.7,89,2.58,0.0,1019.12,311.7
2018-11-07 06:50,50.6304516666667,-96.9807666666667,14.2,21.0,336,990.78,-4.7,89,2.56,0.0,1019.18,311.7
2018-11-07 07:00,50.6304533333333,-96.9807683333333,14.8,21.6,333,990.91,-4.8,89,2.54,0.0,1019.32,270.0
2018-11-07 07:10,50.6304533333333,-96.9807666666667,12.9,20.8,336,991.15,-4.7,89,2.54,0.0,1019.57,270.0
2018-11-07 07:20,50.6304516666667,-96.9807666666667,11.1,19.8,328,991.29,-4.8,91,2.52,0.0,1019.72,270.0
2018-11-07 07:30,50.6304383333333,-96.9807533333333,10.5,15.7,316,991.40,-5.2,95,2.50,0.0,1019.87,270.0
2018-11-07 07:40,50.6304466666667,-96.98077,10.1,13.9,317,991.54,-5.3,95,2.50,0.0,1020.03,270.0
2018-11-07 07:50,50.6304466666667,-96.9807733333333,10.4,14.8,317,991.67,-5.4,95,2.50,0.0,1020.17,270.0
2018-11-07 08:00,50.630445,-96.9807716666667,10.7,17.2,315,991.74,-5.4,96,2.48,0.0,1020.24,360.0
2018-11-07 08:10,50.6304383333333,-96.9807633333333,10.3,17.6,311,991.94,-5.5,96,2.48,0.0,1020.45,360.0
2018-11-07 08:20,50.6304416666667,-96.9807666666667,11.4,15.7,313,992.03,-5.6,96,2.47,0.0,1020.55,360.0
2018-11-07 08:30,50.630445,-96.98077,12.0,18.2,315,992.08,-5.7,97,2.45,0.0,1020.61,360.0
2018-11-07 08:40,50.630445,-96.9807683333333,10.9,16.3,308,992.19,-5.7,97,2.43,0.0,1020.73,360.0
2018-11-07 08:50,50.6304466666667,-96.98077,10.7,16.9,312,992.30,-5.8,97,2.41,0.0,1020.85,360.0
2018-11-07 09:00,50.6304466666667,-96.9807716666667,11.9,17.6,311,992.33,-5.9,98,2.40,0.0,1020.88,270.0
2018-11-07 09:10,50.6304483333333,-96.9807716666667,11.0,16.8,307,992.53,-6.1,98,2.40,0.0,1021.10,270.0
2018-11-07 09:20,50.6304483333333,-96.9807716666667,10.1,16.9,309,992.70,-6.1,99,2.38,0.0,1021.30,270.0
2018-11-07 09:30,50.6304666666667,-96.980795,11.9,17.9,315,992.67,-6.1,98,2.35,0.0,1021.28,270.0
2018-11-07 09:40,50.6304416666667,-96.9807783333333,11.0,18.0,313,992.77,-6.1,98,2.34,0.0,1021.38,270.0
2018-11-07 09:50,50.6304333333333,-96.980765,9.7,14.6,310,992.91,-6.1,98,2.33,0.0,1021.53,270.0
2018-11-07 10:00,50.6304366666667,-96.98075,10.3,15.8,313,992.97,-6.1,96,2.31,0.0,1021.59,147.5
2018-11-07 10:10,50.630455,-96.98077,10.5,15.6,311,993.04,-6.1,95,2.31,0.0,1021.67,147.5
2018-11-07 10:20,50.6304516666667,-96.98077,8.9,14.9,306,993.18,-6.1,95,2.30,0.0,1021.83,147.5
2018-11-07 10:30,50.6304483333333,-96.9807683333333,9.6,15.4,308,993.25,-6.1,94,2.29,0.0,1021.90,147.5
2018-11-07 10:40,50.63045,-96.98077,10.4,15.2,304,993.29,-6.3,95,2.28,0.0,1021.95,147.5
2018-11-07 10:50,50.63045,-96.98077,9.6,14.4,310,993.47,-6.3,96,2.27,0.0,1022.14,147.5
2018-11-07 11:00,50.6304516666667,-96.980775,8.7,14.2,308,993.63,-6.4,96,2.26,0.0,1022.32,360.0
2018-11-07 11:10,50.6304466666667,-96.9807866666667,9.6,14.2,308,993.69,-6.5,97,2.25,0.0,1022.39,360.0
2018-11-07 11:20,50.63044,-96.9807933333333,9.0,14.2,306,993.87,-6.5,97,2.25,0.0,1022.57,360.0
2018-11-07 11:30,50.6304416666667,-96.980775,8.4,14.2,302,994.02,-6.6,98,2.24,0.0,1022.73,360.0
2018-11-07 11:40,50.630445,-96.9807666666667,9.5,14.7,305,994.07,-6.7,97,2.22,0.0,1022.79,360.0
2018-11-07 11:50,50.6304433333333,-96.980765,10.6,16.1,308,994.13,-6.7,97,2.21,0.0,1022.85,360.0
2018-11-07 12:00,50.630445,-96.9807666666667,9.1,15.2,310,994.33,-6.6,96,2.21,0.0,1023.05,167.4
2018-11-07 12:10,50.630435,-96.9807783333333,8.7,13.1,306,994.44,-6.6,96,2.18,0.0,1023.16,167.4
2018-11-07 12:20,50.6304616666667,-96.98078,9.4,14.5,307,994.48,-6.7,95,2.17,0.0,1023.21,167.4
2018-11-07 12:30,50.6304483333333,-96.9807716666667,8.3,13.8,301,994.61,-6.7,96,2.17,0.0,1023.35,167.4
2018-11-07 12:40,50.63045,-96.980775,9.9,15.6,305,994.63,-6.7,97,2.16,0.0,1023.38,167.4
2018-11-07 12:50,50.630435,-96.98078,8.6,12.6,300,994.79,-6.7,97,2.16,0.0,1023.55,167.4
2018-11-07 13:00,50.6304566666667,-96.9807833333333,8.0,12.3,297,994.89,-6.7,99,2.14,0.0,1023.66,305.8
2018-11-07 13:10,50.6304466666667,-96.9807883333333,8.3,13.8,299,994.84,-6.8,99,2.13,0.0,1023.61,305.8
2018-11-07 13:20,50.6304483333333,-96.980775,9.3,13.3,305,994.84,-6.8,99,2.11,0.0,1023.61,305.8
2018-11-07 13:30,50.6304466666667,-96.9807783333333,8.6,11.8,302,994.92,-6.8,99,2.10,0.0,1023.70,305.8
2018-11-07 13:40,50.6304466666667,-96.9807783333333,8.4,13.3,298,995.00,-6.8,99,2.09,0.0,1023.78,305.8
2018-11-07 13:50,50.6304466666667,-96.9807766666667,8.8,13.3,297,995.06,-6.8,98,2.08,0.0,1023.85,305.8
2018-11-07 14:00,50.6304583333333,-96.9807816666667,9.2,13.1,305,995.14,-6.8,96,2.08,0.0,1023.92,299.2
2018-11-07 14:10,50.630455,-96.980785,8.4,13.8,301,995.28,-6.8,95,2.06,0.0,1024.07,299.2
2018-11-07 14:20,50.6304516666667,-96.9807783333333,8.1,12.1,298,995.35,-6.7,94,2.04,0.0,1024.14,299.2
2018-11-07 14:30,50.6304416666667,-96.9807716666667,8.6,12.8,291,995.43,-6.7,94,2.04,0.0,1024.22,299.2
2018-11-07 14:40,50.6304383333333,-96.980775,9.3,13.6,297,995.46,-6.6,92,2.03,0.0,1024.25,299.2
2018-11-07 14:50,50.63043,-96.9807916666667,8.8,14.4,301,995.60,-6.6,90,2.02,0.0,1024.39,299.2
2018-11-07 15:00,50.630435,-96.980795,7.4,11.2,305,995.76,-6.5,90,2.01,0.0,1024.55,256.3
2018-11-07 15:10,50.6304383333333,-96.980785,8.6,13.9,308,995.77,-6.4,90,2.00,0.0,1024.57,256.3
2018-11-07 15:20,50.6304516666667,-96.9807683333333,7.8,12.3,306,995.86,-6.4,90,2.01,0.0,1024.66,256.3
2018-11-07 15:30,50.6304516666667,-96.980775,7.3,10.1,312,995.92,-6.3,90,2.02,0.0,1024.71,256.3
2018-11-07 15:40,50.6304516666667,-96.9807733333333,6.9,10.0,310,995.95,-6.2,90,2.02,0.0,1024.74,256.3
2018-11-07 15:50,50.6304516666667,-96.9807733333333,7.8,12.6,305,995.96,-6.1,90,2.02,0.0,1024.74,256.3
2018-11-07 16:00,50.6304516666667,-96.9807733333333,8.4,12.0,302,996.00,-6.2,90,2.02,0.0,1024.78,90.0
2018-11-07 16:10,50.6304516666667,-96.9807733333333,9.1,13.0,297,996.00,-6.2,90,2.02,0.0,1024.78,90.0
2018-11-07 16:20,50.63045,-96.9807716666667,9.2,13.3,297,996.00,-6.3,89,2.01,0.0,1024.78,90.0
2018-11-07 16:30,50.630435,-96.98076,8.7,13.2,303,996.01,-6.3,89,2.01,0.0,1024.80,90.0
2018-11-07 16:40,50.63045,-96.9807766666667,8.2,13.9,303,996.05,-6.3,89,1.99,0.0,1024.83,90.0
2018-11-07 16:50,50.63045,-96.980775,8.7,13.3,299,996.07,-6.3,87,1.99,0.0,1024.85,90.0
2018-11-07 17:00,50.6304516666667,-96.9807716666667,9.4,15.1,299,996.10,-6.3,87,2.00,0.0,1024.87,119.2
2018-11-07 17:10,50.6304516666667,-96.9807716666667,8.9,13.2,300,996.16,-6.3,86,2.00,0.0,1024.94,119.2
2018-11-07 17:20,50.6304466666667,-96.9807266666667,8.4,13.2,295,996.23,-6.2,86,1.99,0.0,1025.00,119.2
2018-11-07 17:30,50.6304516666667,-96.9807566666667,8.6,12.9,302,996.25,-6.2,85,2.00,0.0,1025.01,119.2
2018-11-07 17:40,50.63045,-96.98076,8.3,12.5,290,996.22,-6.2,85,2.00,0.0,1024.98,119.2
2018-11-07 17:50,50.6304483333333,-96.98076,8.9,14.6,294,996.13,-6.2,84,1.99,0.0,1024.89,119.2
2018-11-07 18:00,50.6304583333333,-96.980765,8.3,12.6,297,996.16,-6.2,84,1.98,0.0,1024.91,43.8
2018-11-07 18:10,50.6304716666667,-96.9807916666667,8.1,11.7,305,996.16,-6.1,83,1.99,0.0,1024.92,43.8
2018-11-07 18:20,50.6304666666667,-96.980775,7.7,11.5,297,996.22,-6.0,82,1.99,0.0,1024.97,43.8
2018-11-07 18:30,50.6304616666667,-96.9807683333333,7.0,11.0,305,996.21,-5.8,81,1.98,0.0,1024.95,43.8
2018-11-07 18:40,50.6304566666667,-96.980765,7.9,13.4,289,996.18,-5.8,79,1.98,0.0,1024.92,43.8
2018-11-07 18:50,50.630455,-96.9807633333333,7.8,11.7,297,996.16,-5.7,77,1.98,0.0,1024.90,43.8
2018-11-07 19:00,50.6304533333333,-96.9807633333333,8.8,13.6,290,996.15,-5.7,76,1.98,0.0,1024.89,90.0
2018-11-07 19:10,50.6304516666667,-96.980765,7.8,11.9,285,996.17,-5.6,74,1.98,0.0,1024.90,90.0
2018-11-07 19:20,50.6304516666667,-96.980765,7.1,11.3,274,996.22,-5.5,72,1.99,0.0,1024.94,90.0
2018-11-07 19:30,50.6304533333333,-96.980765,7.0,10.3,259,996.28,-5.6,70,1.99,0.0,1025.01,90.0
2018-11-07 19:40,50.6304516666667,-96.980765,7.8,13.0,280,996.21,-5.4,68,1.98,0.0,1024.92,90.0
2018-11-07 19:50,50.6304516666667,-96.980765,7.9,11.7,271,996.28,-5.4,67,1.98,0.0,1024.99,90.0
2018-11-07 20:00,50.6304466666667,-96.9807733333333,7.8,11.6,277,996.23,-5.4,67,1.97,0.0,1024.95,360.0
2018-11-07 20:10,50.6304483333333,-96.980765,7.8,11.6,276,996.27,-5.4,67,1.97,0.0,1024.98,360.0
2018-11-07 20:20,50.6304516666667,-96.9807666666667,6.0,10.8,288,996.31,-5.1,66,1.97,0.0,1025.00,360.0
2018-11-07 20:30,50.63045,-96.9807666666667,7.8,12.4,283,996.25,-5.0,65,1.97,0.0,1024.92,360.0
2018-11-07 20:40,50.63045,-96.9807666666667,7.6,11.1,299,996.28,-5.0,65,1.97,0.0,1024.95,360.0
2018-11-07 20:50,50.6304316666667,-96.98077,7.5,12.6,294,996.35,-5.1,66,1.97,0.0,1025.03,360.0
2018-11-07 21:00,50.6304433333333,-96.9807616666667,7.4,11.7,274,996.46,-5.2,68,1.96,0.0,1025.13,360.0
2018-11-07 21:10,50.630445,-96.98076,6.9,10.1,274,996.45,-5.2,67,1.96,0.0,1025.12,360.0
2018-11-07 21:20,50.630445,-96.9807616666667,7.9,11.8,279,996.41,-5.1,64,1.96,0.0,1025.08,360.0
2018-11-07 21:30,50.630445,-96.9807616666667,6.4,10.1,284,996.46,-5.0,63,1.96,0.0,1025.12,360.0
2018-11-07 21:40,50.630445,-96.9807616666667,8.7,12.9,283,996.45,-5.0,62,1.96,0.0,1025.11,360.0
2018-11-07 21:50,50.63045,-96.9807466666667,6.6,9.2,271,996.65,-4.9,65,1.96,0.0,1025.31,360.0
2018-11-07 22:00,50.6304333333333,-96.9807716666667,6.6,10.4,269,996.72,-5.0,65,1.95,0.0,1025.38,207.6
2018-11-07 22:10,50.6304383333333,-96.9807683333333,7.7,11.4,276,996.72,-5.0,64,1.95,0.0,1025.37,207.6
2018-11-07 22:20,50.6304433333333,-96.9807666666667,6.8,10.3,283,996.78,-4.9,63,1.95,0.0,1025.42,207.6
2018-11-07 22:30,50.6304433333333,-96.980765,7.7,11.7,290,996.82,-4.9,61,1.95,0.0,1025.46,207.6
2018-11-07 22:40,50.6304433333333,-96.980765,7.3,11.6,287,996.88,-5.0,60,1.95,0.0,1025.54,207.6
2018-11-07 22:50,50.6304433333333,-96.980765,6.6,9.3,277,996.97,-5.0,60,1.94,0.0,1025.63,207.6
2018-11-07 23:00,50.630445,-96.9807666666667,5.5,8.9,282,997.02,-5.0,61,1.92,0.0,1025.68,167.4
2018-11-07 23:10,50.630445,-96.9807666666667,6.3,9.0,274,997.09,-5.1,60,1.92,0.0,1025.76,167.4
2018-11-07 23:20,50.630445,-96.9807666666667,6.2,8.9,274,997.12,-5.1,60,1.92,0.0,1025.78,167.4
2018-11-07 23:30,50.630445,-96.9807666666667,5.4,8.0,271,997.17,-5.1,60,1.91,0.0,1025.83,167.4
2018-11-07 23:40,50.6304433333333,-96.9807666666667,5.0,7.3,267,997.20,-5.1,61,1.90,0.0,1025.86,167.4
